OAL210 LGAV-LATI

Flight info

Callsign OAL210
Flight time 0h 51m
Altitude 34000
Route KOR UL53 IXONI DCT YNN UL604 DIMIS DCT ADDER DCT ELBAK
Aircraft B738/M-SDE2E3FGHIRWXY/LB1

Departure

Time 2026-05-06 12:40
Airport Athens Eleftherios Venizelos International Airport (LGAV)

Arrival

Time 2026-05-06 13:31
Airport Tirana International Airport Mother Teresa (LATI)
Time Latitude Longitude Altitude Speed Heading
2026-05-06 12:29 37.93746 23.94978 300 ft 0 kts 306°
2026-05-06 12:32 37.93736 23.94996 300 ft 2 kts 28°
2026-05-06 12:33 37.93732 23.94993 300 ft 1 kts 28°
2026-05-06 12:33 37.93735 23.94996 300 ft 1 kts 29°
2026-05-06 12:33 37.93753 23.95016 300 ft 7 kts 46°
2026-05-06 12:33 37.93793 23.95089 302 ft 14 kts 58°
2026-05-06 12:34 37.93851 23.95210 299 ft 18 kts 61°
2026-05-06 12:34 37.93873 23.95375 298 ft 19 kts 120°
2026-05-06 12:34 37.93886 23.95503 295 ft 16 kts 44°
2026-05-06 12:34 37.93989 23.95601 300 ft 21 kts 37°
2026-05-06 12:35 37.94124 23.95729 297 ft 26 kts 37°
2026-05-06 12:35 37.94284 23.95881 300 ft 32 kts 37°
2026-05-06 12:35 37.94471 23.96057 301 ft 35 kts 37°
2026-05-06 12:35 37.94656 23.96236 300 ft 33 kts 37°
2026-05-06 12:36 37.94835 23.96400 299 ft 30 kts 36°
2026-05-06 12:36 37.94995 23.96556 301 ft 28 kts 38°
2026-05-06 12:36 37.95141 23.96694 304 ft 25 kts 37°
2026-05-06 12:36 37.95272 23.96821 303 ft 23 kts 36°
2026-05-06 12:37 37.95380 23.96938 302 ft 18 kts 67°
2026-05-06 12:37 37.95337 23.97019 305 ft 0 kts 167°
2026-05-06 12:38 37.95336 23.97019 305 ft 1 kts 167°
2026-05-06 12:38 37.95312 23.97025 309 ft 7 kts 169°
2026-05-06 12:38 37.95232 23.97039 309 ft 16 kts 176°
2026-05-06 12:39 37.95172 23.97006 309 ft 0 kts 217°
2026-05-06 12:39 37.95091 23.96929 307 ft 51 kts 216°
2026-05-06 12:39 37.94569 23.96432 292 ft 134 kts 217°
2026-05-06 12:40 37.93655 23.95569 464 ft 188 kts 216°
2026-05-06 12:40 37.92659 23.94670 1863 ft 158 kts 218°
2026-05-06 12:40 37.91842 23.93820 2948 ft 152 kts 217°
2026-05-06 12:40 37.90958 23.93019 3620 ft 158 kts 217°
2026-05-06 12:41 37.90011 23.92078 3974 ft 191 kts 232°
2026-05-06 12:41 37.89600 23.90411 4251 ft 216 kts 276°
2026-05-06 12:41 37.90022 23.88476 4603 ft 234 kts 287°
2026-05-06 12:41 37.90493 23.86436 5010 ft 257 kts 284°
2026-05-06 12:42 37.90892 23.84162 5746 ft 265 kts 281°
2026-05-06 12:42 37.91197 23.81863 6780 ft 265 kts 278°
2026-05-06 12:42 37.91433 23.79531 7724 ft 269 kts 276°
2026-05-06 12:42 37.91615 23.77125 8449 ft 277 kts 275°
2026-05-06 12:43 37.91753 23.74690 9433 ft 276 kts 275°
2026-05-06 12:43 37.91861 23.72225 10182 ft 284 kts 274°
2026-05-06 12:43 37.91950 23.69664 10518 ft 307 kts 274°
2026-05-06 12:43 37.92031 23.66834 10716 ft 333 kts 274°
2026-05-06 12:44 37.92104 23.63801 10973 ft 354 kts 272°
2026-05-06 12:44 37.92165 23.60646 11600 ft 360 kts 273°
2026-05-06 12:44 37.92220 23.57457 12361 ft 364 kts 272°
2026-05-06 12:44 37.92269 23.54280 13101 ft 367 kts 273°
2026-05-06 12:45 37.92316 23.51030 13872 ft 370 kts 273°
2026-05-06 12:45 37.92363 23.47744 14564 ft 373 kts 273°
2026-05-06 12:45 37.92451 23.41392 15916 ft 378 kts 273°
2026-05-06 12:46 37.92496 23.38046 16588 ft 381 kts 273°
2026-05-06 12:46 37.92540 23.34687 17280 ft 383 kts 273°
2026-05-06 12:46 37.92568 23.32452 17720 ft 384 kts 273°
2026-05-06 12:46 37.92611 23.29047 18367 ft 387 kts 273°
2026-05-06 12:47 37.92653 23.25626 18896 ft 390 kts 273°
2026-05-06 12:47 37.92709 23.21050 19569 ft 395 kts 274°
2026-05-06 12:47 37.92749 23.17560 20131 ft 398 kts 274°
2026-05-06 12:47 37.92776 23.15224 20486 ft 400 kts 274°
2026-05-06 12:48 37.92816 23.11686 20997 ft 403 kts 274°
2026-05-06 12:48 37.92854 23.08122 21481 ft 407 kts 274°
2026-05-06 12:48 37.92893 23.04519 21954 ft 410 kts 274°
2026-05-06 12:48 37.92930 23.00895 22423 ft 413 kts 274°
2026-05-06 12:49 37.93044 22.97362 22869 ft 414 kts 280°
2026-05-06 12:49 37.93687 22.93817 23339 ft 413 kts 290°
2026-05-06 12:49 37.94780 22.90449 23788 ft 413 kts 299°
2026-05-06 12:49 37.96311 22.87367 24191 ft 413 kts 306°
2026-05-06 12:50 37.97972 22.84431 24591 ft 415 kts 307°
2026-05-06 12:50 37.99661 22.81450 24953 ft 418 kts 306°
2026-05-06 12:50 38.01343 22.78447 25314 ft 421 kts 306°
2026-05-06 12:50 38.03033 22.75396 25666 ft 423 kts 306°
2026-05-06 12:51 38.04722 22.72322 26036 ft 426 kts 305°
2026-05-06 12:51 38.06416 22.69233 26413 ft 428 kts 305°
2026-05-06 12:51 38.08121 22.66121 26750 ft 430 kts 305°
2026-05-06 12:51 38.09834 22.62996 27073 ft 433 kts 305°
2026-05-06 12:52 38.11558 22.59846 27403 ft 435 kts 305°
2026-05-06 12:52 38.13288 22.56685 27727 ft 437 kts 305°
2026-05-06 12:52 38.15027 22.53502 28049 ft 439 kts 305°
2026-05-06 12:52 38.16772 22.50308 28355 ft 441 kts 304°
2026-05-06 12:53 38.18504 22.47130 28750 ft 441 kts 304°
2026-05-06 12:53 38.20249 22.43928 29247 ft 439 kts 304°
2026-05-06 12:53 38.21985 22.40741 29753 ft 437 kts 304°
2026-05-06 12:53 38.23711 22.37566 30216 ft 436 kts 304°
2026-05-06 12:54 38.25440 22.34383 30592 ft 435 kts 304°
2026-05-06 12:54 38.27160 22.31214 30959 ft 434 kts 304°
2026-05-06 12:54 38.28874 22.28053 31350 ft 433 kts 304°
2026-05-06 12:54 38.30614 22.24924 31733 ft 432 kts 307°
2026-05-06 12:55 38.32590 22.22116 32165 ft 431 kts 314°
2026-05-06 12:55 38.34894 22.19670 32560 ft 431 kts 320°
2026-05-06 12:55 38.37272 22.17332 32856 ft 432 kts 320°
2026-05-06 12:55 38.39661 22.14997 33180 ft 432 kts 320°
2026-05-06 12:56 38.42039 22.12666 33572 ft 430 kts 319°
2026-05-06 12:56 38.44382 22.10357 33852 ft 430 kts 319°
2026-05-06 12:56 38.46748 22.08010 34095 ft 431 kts 319°
2026-05-06 12:57 38.51495 22.03277 34081 ft 431 kts 319°
2026-05-06 12:57 38.56115 21.98655 34082 ft 428 kts 319°
2026-05-06 12:58 38.60787 21.93971 34086 ft 426 kts 319°
2026-05-06 12:58 38.65411 21.89323 34085 ft 425 kts 319°
2026-05-06 12:59 38.70062 21.84642 34089 ft 425 kts 319°
2026-05-06 12:59 38.74714 21.79952 34083 ft 426 kts 319°
2026-05-06 13:00 38.79388 21.75233 34097 ft 428 kts 319°
2026-05-06 13:00 38.84038 21.70530 34096 ft 430 kts 319°
2026-05-06 13:01 38.88750 21.65757 34103 ft 432 kts 319°
2026-05-06 13:01 38.93490 21.60946 34094 ft 433 kts 319°
2026-05-06 13:02 38.98205 21.56152 34084 ft 435 kts 319°
2026-05-06 13:02 39.02941 21.51329 34099 ft 434 kts 319°
2026-05-06 13:03 39.07685 21.46490 34083 ft 434 kts 319°
2026-05-06 13:03 39.12381 21.41692 34093 ft 433 kts 318°
2026-05-06 13:04 39.17094 21.36866 34090 ft 432 kts 318°
2026-05-06 13:04 39.21791 21.32049 34088 ft 430 kts 318°
2026-05-06 13:05 39.26467 21.27246 34096 ft 428 kts 318°
2026-05-06 13:05 39.31095 21.22482 34095 ft 428 kts 318°
2026-05-06 13:06 39.35749 21.17682 34095 ft 427 kts 318°
2026-05-06 13:06 39.40400 21.12878 34098 ft 428 kts 318°
2026-05-06 13:07 39.45037 21.08081 34104 ft 430 kts 318°
2026-05-06 13:07 39.49717 21.03229 34088 ft 431 kts 318°
2026-05-06 13:08 39.54324 20.98443 34107 ft 432 kts 318°
2026-05-06 13:08 39.59007 20.93572 34125 ft 431 kts 318°
2026-05-06 13:09 39.63672 20.88711 34136 ft 432 kts 318°
2026-05-06 13:09 39.68366 20.83812 34138 ft 433 kts 319°
2026-05-06 13:10 39.73582 20.79799 34135 ft 439 kts 332°
2026-05-06 13:10 39.79150 20.76527 34127 ft 439 kts 332°
2026-05-06 13:10 39.81907 20.74895 33830 ft 443 kts 332°
2026-05-06 13:11 39.84717 20.73213 33236 ft 442 kts 332°
2026-05-06 13:11 39.87507 20.71532 32567 ft 441 kts 332°
2026-05-06 13:11 39.90296 20.69843 31870 ft 441 kts 331°
2026-05-06 13:11 39.93080 20.68154 31147 ft 442 kts 331°
2026-05-06 13:12 39.95878 20.66453 30474 ft 441 kts 331°
2026-05-06 13:12 39.98641 20.64775 29950 ft 436 kts 331°
2026-05-06 13:12 40.01333 20.63137 29372 ft 431 kts 332°
2026-05-06 13:12 40.04038 20.61492 28851 ft 424 kts 332°
2026-05-06 13:13 40.06695 20.59877 28336 ft 418 kts 332°
2026-05-06 13:13 40.09325 20.58247 27870 ft 413 kts 331°
2026-05-06 13:13 40.11863 20.56631 27357 ft 409 kts 331°
2026-05-06 13:13 40.14400 20.54999 26895 ft 404 kts 330°
2026-05-06 13:14 40.16919 20.53376 26379 ft 401 kts 330°
2026-05-06 13:14 40.19414 20.51770 25895 ft 399 kts 331°
2026-05-06 13:14 40.21897 20.50173 25404 ft 396 kts 331°
2026-05-06 13:14 40.24367 20.48584 24918 ft 394 kts 331°
2026-05-06 13:15 40.26827 20.47003 24421 ft 391 kts 331°
2026-05-06 13:15 40.29261 20.45439 23947 ft 388 kts 331°
2026-05-06 13:15 40.31647 20.43902 23438 ft 385 kts 331°
2026-05-06 13:15 40.34051 20.42355 22905 ft 382 kts 331°
2026-05-06 13:16 40.36439 20.40817 22415 ft 379 kts 331°
2026-05-06 13:16 40.38800 20.39296 21913 ft 376 kts 331°
2026-05-06 13:16 40.41143 20.37783 21427 ft 373 kts 331°
2026-05-06 13:16 40.43437 20.36302 20985 ft 370 kts 331°
2026-05-06 13:17 40.45750 20.34807 20512 ft 369 kts 331°
2026-05-06 13:17 40.48045 20.33323 20055 ft 367 kts 331°
2026-05-06 13:17 40.50330 20.31844 19597 ft 365 kts 331°
2026-05-06 13:17 40.52608 20.30368 19148 ft 363 kts 332°
2026-05-06 13:18 40.54885 20.28882 18546 ft 366 kts 331°
2026-05-06 13:18 40.57143 20.27400 18001 ft 367 kts 332°
2026-05-06 13:18 40.59424 20.25902 17509 ft 365 kts 332°
2026-05-06 13:18 40.61696 20.24413 17018 ft 362 kts 331°
2026-05-06 13:19 40.63942 20.22935 16562 ft 360 kts 331°
2026-05-06 13:19 40.66171 20.21466 16081 ft 357 kts 331°
2026-05-06 13:19 40.68389 20.20006 15650 ft 354 kts 331°
2026-05-06 13:19 40.70589 20.18554 15198 ft 351 kts 331°
2026-05-06 13:20 40.72739 20.17130 14779 ft 349 kts 331°
2026-05-06 13:20 40.74909 20.15690 14329 ft 348 kts 331°
2026-05-06 13:20 40.77074 20.14265 13882 ft 347 kts 331°
2026-05-06 13:20 40.79235 20.12841 13391 ft 345 kts 331°
2026-05-06 13:21 40.81376 20.11429 12924 ft 343 kts 331°
2026-05-06 13:21 40.83504 20.10025 12489 ft 341 kts 331°
2026-05-06 13:21 40.85615 20.08628 12124 ft 336 kts 331°
2026-05-06 13:21 40.87705 20.07316 11832 ft 331 kts 335°
2026-05-06 13:22 40.89828 20.06169 11516 ft 327 kts 336°
2026-05-06 13:22 40.91936 20.05084 11198 ft 322 kts 337°
2026-05-06 13:22 40.94008 20.04019 10884 ft 317 kts 336°
2026-05-06 13:22 40.96022 20.02971 10597 ft 313 kts 336°
2026-05-06 13:23 40.98036 20.01917 10283 ft 310 kts 336°
2026-05-06 13:23 41.00094 20.00835 9916 ft 310 kts 336°
2026-05-06 13:23 41.01891 19.99886 9879 ft 298 kts 336°
2026-05-06 13:23 41.03774 19.98888 9863 ft 285 kts 336°
2026-05-06 13:24 41.05565 19.97936 9744 ft 277 kts 336°
2026-05-06 13:24 41.07351 19.96985 9465 ft 275 kts 336°
2026-05-06 13:24 41.09130 19.96035 9154 ft 275 kts 336°
2026-05-06 13:24 41.10903 19.95089 8855 ft 275 kts 335°
2026-05-06 13:25 41.12676 19.94143 8557 ft 274 kts 336°
2026-05-06 13:25 41.14446 19.93199 8282 ft 273 kts 336°
2026-05-06 13:25 41.16209 19.92258 8008 ft 273 kts 336°
2026-05-06 13:25 41.17891 19.91132 7701 ft 269 kts 317°
2026-05-06 13:26 41.18964 19.89176 7349 ft 263 kts 288°
2026-05-06 13:26 41.19301 19.86831 7031 ft 259 kts 268°
2026-05-06 13:26 41.19180 19.84456 6759 ft 257 kts 262°
2026-05-06 13:26 41.18977 19.82102 6570 ft 255 kts 262°
2026-05-06 13:27 41.18780 19.79806 6307 ft 250 kts 262°
2026-05-06 13:27 41.18948 19.77557 6044 ft 247 kts 289°
2026-05-06 13:27 41.20048 19.75717 5283 ft 266 kts 325°
2026-05-06 13:27 41.21788 19.74810 4575 ft 271 kts 346°
2026-05-06 13:28 41.23659 19.74401 3921 ft 270 kts 353°
2026-05-06 13:28 41.25484 19.74159 3494 ft 257 kts 354°
2026-05-06 13:28 41.27220 19.73943 3122 ft 243 kts 354°
2026-05-06 13:28 41.28822 19.73742 2767 ft 224 kts 355°
2026-05-06 13:29 41.30287 19.73547 2427 ft 204 kts 355°
2026-05-06 13:29 41.31639 19.73357 2122 ft 187 kts 355°
2026-05-06 13:29 41.32885 19.73196 1881 ft 172 kts 354°
2026-05-06 13:29 41.34055 19.73043 1583 ft 164 kts 354°
2026-05-06 13:30 41.35158 19.72894 1358 ft 158 kts 353°
2026-05-06 13:30 41.36261 19.72743 1048 ft 160 kts 353°
2026-05-06 13:30 41.37345 19.72624 701 ft 152 kts 354°
2026-05-06 13:30 41.38367 19.72497 463 ft 143 kts 353°
2026-05-06 13:31 41.39364 19.72353 297 ft 146 kts 352°
2026-05-06 13:31 41.40366 19.72208 155 ft 144 kts 352°
2026-05-06 13:31 41.41266 19.72086 122 ft 106 kts 354°
2026-05-06 13:31 41.41785 19.72014 115 ft 44 kts 353°
2026-05-06 13:32 41.41873 19.71838 116 ft 24 kts 265°
2026-05-06 13:32 41.41869 19.71625 119 ft 22 kts 300°
2026-05-06 13:32 41.41994 19.71566 115 ft 13 kts 338°
2026-05-06 13:32 41.42025 19.71530 117 ft 1 kts 289°
2026-05-06 13:33 41.42027 19.71512 117 ft 0 kts 276°